sat.trackr.live / text

‹ back to catalog

STARLINK-31397

NORAD 59540 · 2024-074G

PAYLOAD ACTIVE UNKNOWN

§ Identity

Operator
Country
US
Launch date
2024-04-18
Launch site
AFETR
Launch vehicle
Mass (kg)
RCS (m²)

Purposes: comms

External: N2YO · Heavens-Above · Gunter

§ Orbital elements

Epoch: 2026-05-24T17:59:37.127328Z

Period
94.27 min
Inclination
43.0029°
Eccentricity
0.0001639
Mean motion
15.27575835 rev/d
Perigee alt
481.9 km
Apogee alt
484.2 km
Semi-major
6,861.2 km
B*
2.8743e-5
RAAN
274.2422°
Arg perigee
270.5502°
Mean anomaly
89.5162°
Rev number
11,764

§ Raw data

STARLINK-313971 59540U 24074G   26144.74973527  .00000529  00000+0  28743-4 0  99942 59540  43.0029 274.2422 0001639 270.5502  89.5162 15.27575835117644

JSON: /api/v1/satellites/59540 · /tle

For live sub-satellite position, see the globe view (requires WebGL).

§ Visibility from observer

Set your observer location to see the next 7 days of passes ≥ 10°. The values pass through the URL so the page stays shareable.

No JS? Fill the form by hand. The geolocation button needs JavaScript.